Location: �terpigny
(49.8910°N, 2.9249°E)
Time: 21:50:03
(UTC+00:00)

DIWATA 2B (PO-101) - Pass Details

Date: 29 June 2022
Orbit: 583 x 599 km, 98.0° (Epoch: 16 August)

Event Time Altitude Azimuth Distance (km) Brightness Sun altitude
Rises 23:54:16 0° 110° (ESE) 2,841 ? -16.9°
Reaches altitude 10° 23:57:33 10° 82° (E) 1,945 ? -16.9°
Maximum altitude 23:59:23 13° 56° (NE) 1,776 ? -16.9°
Drops below altitude 10° 00:01:13 10° 30° (NNE) 1,952 ? -16.9°
Sets 00:04:32 0° 2° (N) 2,860 ? -16.9°
